This is the latest recevied weather packets stored in our database for station/object ON3FV. If no packets are shown the sender has not sent any weather packets the latest 10 day(s).
| Time | Temp. | Humidity | Pressure | Rain* | Wind** | Luminosity | Snow |
|---|---|---|---|---|---|---|---|
| 1777539130 | 16.11° C | 46% | 1023.6 hPa | - | - | - | - |
| 1777537324 | 15.56° C | 45% | 1023.9 hPa | - | - | - | - |
| 1777532508 | 13.33° C | 53% | 1024.3 hPa | - | - | - | - |
| 1777531604 | 12.22° C | 54% | 1024.3 hPa | - | - | - | - |
| 1777531003 | 11.67° C | 53% | 1024.3 hPa | - | - | - | - |
| 1777530702 | 11.67° C | 53% | 1024.3 hPa | - | - | - | - |
| 1777529799 | 11.11° C | 54% | 1024.2 hPa | - | - | - | - |
| 1777529498 | 11.11° C | 54% | 1024.2 hPa | - | - | - | - |
| 1777528895 | 10.56° C | 55% | 1024.1 hPa | - | - | - | - |
| 1777527390 | 9.44° C | 57% | 1023.6 hPa | - | - | - | - |
| 1777526488 | 9.44° C | 56% | 1023.6 hPa | - | - | - | - |
| 1777524681 | 9.44° C | 55% | 1023.3 hPa | - | - | - | - |
| 1777523779 | 9.44° C | 54% | 1023.3 hPa | - | - | - | - |
| 1777523478 | 9.44° C | 54% | 1023.3 hPa | - | - | - | - |
| 1777522574 | 10° C | 54% | 1023.2 hPa | - | - | - | - |
| 1777521972 | 10° C | 53% | 1023.2 hPa | - | - | - | - |
| 1777521672 | 10° C | 53% | 1023.2 hPa | - | - | - | - |
| 1777520467 | 10° C | 54% | 1023.2 hPa | - | - | - | - |
| 1777520187 | 10° C | 54% | 1023.3 hPa | - | - | - | - |
| 1777519284 | 10° C | 54% | 1023.3 hPa | - | - | - | - |
| 1777516254 | 10.56° C | 53% | 1023.1 hPa | - | - | - | - |
| 1777512040 | 11.11° C | 55% | 1023.3 hPa | - | - | - | - |
| 1777511438 | 11.67° C | 55% | 1023.3 hPa | - | - | - | - |
| 1777511137 | 11.67° C | 55% | 1023.3 hPa | - | - | - | - |
| 1777508127 | 12.22° C | 54% | 1023.2 hPa | - | - | - | - |
* Rain since midnight (hover to see other rain measurements)
** Current wind speed in m/s (hover to see current wind gust speed)